VOZ863 YMML-YSSY

Flight info

Callsign VOZ863
Flight time 1h 6m
Altitude 35000
Route DOSEL2 DOSEL Y59 RIVET RIVET4
Aircraft B738/M-SDE2E3FGHIRWXY/LB1

Departure

Time 2026-05-05 06:46
Airport Melbourne Airport (YMML)

Arrival

Time 2026-05-05 07:52
Airport Sydney Kingsford Smith International Airport (YSSY)
Time Latitude Longitude Altitude Speed Heading
2026-05-05 06:10 -37.67134 144.84586 387 ft 0 kts 352°
2026-05-05 06:32 -37.67151 144.84589 386 ft 4 kts 347°
2026-05-05 06:32 -37.67177 144.84600 386 ft 4 kts 332°
2026-05-05 06:33 -37.67196 144.84619 386 ft 4 kts 293°
2026-05-05 06:33 -37.67199 144.84634 386 ft 1 kts 262°
2026-05-05 06:37 -37.67199 144.84632 386 ft 1 kts 262°
2026-05-05 06:37 -37.67202 144.84602 385 ft 6 kts 262°
2026-05-05 06:37 -37.67210 144.84534 384 ft 10 kts 263°
2026-05-05 06:37 -37.67200 144.84438 383 ft 12 kts 275°
2026-05-05 06:38 -37.67204 144.84345 382 ft 10 kts 268°
2026-05-05 06:38 -37.67173 144.84271 381 ft 10 kts 328°
2026-05-05 06:38 -37.67108 144.84250 383 ft 10 kts 351°
2026-05-05 06:38 -37.67042 144.84239 384 ft 9 kts 353°
2026-05-05 06:39 -37.66978 144.84228 385 ft 9 kts 352°
2026-05-05 06:39 -37.66916 144.84216 387 ft 9 kts 351°
2026-05-05 06:39 -37.66856 144.84205 389 ft 9 kts 351°
2026-05-05 06:39 -37.66798 144.84194 391 ft 8 kts 352°
2026-05-05 06:40 -37.66741 144.84184 393 ft 8 kts 352°
2026-05-05 06:40 -37.66686 144.84174 395 ft 8 kts 352°
2026-05-05 06:40 -37.66632 144.84166 398 ft 8 kts
2026-05-05 06:40 -37.66583 144.84188 398 ft 7 kts 32°
2026-05-05 06:41 -37.66547 144.84233 402 ft 8 kts 55°
2026-05-05 06:41 -37.66529 144.84298 402 ft 8 kts 80°
2026-05-05 06:41 -37.66520 144.84366 403 ft 8 kts 82°
2026-05-05 06:41 -37.66513 144.84432 403 ft 7 kts 81°
2026-05-05 06:42 -37.66505 144.84496 404 ft 7 kts 81°
2026-05-05 06:42 -37.66498 144.84558 405 ft 7 kts 81°
2026-05-05 06:42 -37.66491 144.84614 405 ft 7 kts 81°
2026-05-05 06:42 -37.66484 144.84670 406 ft 7 kts 78°
2026-05-05 06:43 -37.66465 144.84724 407 ft 7 kts 56°
2026-05-05 06:43 -37.66431 144.84762 409 ft 6 kts 30°
2026-05-05 06:43 -37.66389 144.84780 409 ft 6 kts 11°
2026-05-05 06:43 -37.66346 144.84786 410 ft 6 kts
2026-05-05 06:44 -37.66304 144.84790 410 ft 6 kts
2026-05-05 06:44 -37.66262 144.84794 410 ft 6 kts
2026-05-05 06:44 -37.66229 144.84767 409 ft 6 kts 296°
2026-05-05 06:44 -37.66222 144.84715 412 ft 6 kts 275°
2026-05-05 06:45 -37.66219 144.84663 412 ft 6 kts 275°
2026-05-05 06:45 -37.66199 144.84325 409 ft 79 kts 274°
2026-05-05 06:45 -37.66139 144.83336 413 ft 147 kts 275°
2026-05-05 06:45 -37.66059 144.81885 827 ft 174 kts 272°
2026-05-05 06:46 -37.65975 144.80285 1628 ft 181 kts 271°
2026-05-05 06:46 -37.65919 144.78771 2168 ft 173 kts 271°
2026-05-05 06:46 -37.65825 144.77206 2808 ft 185 kts 275°
2026-05-05 06:46 -37.65667 144.75576 3602 ft 189 kts 275°
2026-05-05 06:47 -37.65524 144.73904 4266 ft 197 kts 274°
2026-05-05 06:47 -37.65392 144.72174 4954 ft 196 kts 274°
2026-05-05 06:47 -37.65272 144.70426 5407 ft 212 kts 273°
2026-05-05 06:47 -37.65161 144.68396 5256 ft 254 kts 275°
2026-05-05 06:48 -37.64615 144.66201 5752 ft 269 kts 301°
2026-05-05 06:48 -37.63239 144.64616 6688 ft 275 kts 334°
2026-05-05 06:48 -37.61411 144.63939 7501 ft 280 kts 344°
2026-05-05 06:48 -37.59506 144.63337 8254 ft 286 kts 342°
2026-05-05 06:49 -37.57567 144.62671 9051 ft 290 kts 341°
2026-05-05 06:49 -37.55560 144.62277 9825 ft 300 kts
2026-05-05 06:49 -37.53529 144.63005 10414 ft 316 kts 29°
2026-05-05 06:49 -37.51851 144.64927 10615 ft 341 kts 52°
2026-05-05 06:50 -37.50395 144.67406 10885 ft 360 kts 54°
2026-05-05 06:50 -37.48912 144.69990 11504 ft 367 kts 54°
2026-05-05 06:50 -37.47414 144.72567 12236 ft 370 kts 55°
2026-05-05 06:50 -37.45999 144.75334 12973 ft 374 kts 60°
2026-05-05 06:51 -37.44713 144.78149 13686 ft 378 kts 62°
2026-05-05 06:51 -37.43431 144.81050 14352 ft 382 kts 62°
2026-05-05 06:51 -37.42132 144.83988 15021 ft 384 kts 62°
2026-05-05 06:51 -37.40822 144.86917 15705 ft 387 kts 61°
2026-05-05 06:52 -37.39488 144.89866 16373 ft 389 kts 61°
2026-05-05 06:52 -37.38133 144.92836 17041 ft 392 kts 61°
2026-05-05 06:52 -37.36765 144.95816 17702 ft 395 kts 61°
2026-05-05 06:52 -37.35403 144.98774 18350 ft 398 kts 60°
2026-05-05 06:53 -37.34012 145.01788 18909 ft 401 kts 60°
2026-05-05 06:53 -37.32606 145.04830 19450 ft 404 kts 60°
2026-05-05 06:53 -37.31185 145.07903 19980 ft 408 kts 60°
2026-05-05 06:53 -37.29754 145.10994 20512 ft 411 kts 60°
2026-05-05 06:54 -37.28312 145.14105 21028 ft 415 kts 60°
2026-05-05 06:54 -37.26851 145.17257 21530 ft 418 kts 60°
2026-05-05 06:54 -37.25382 145.20423 22037 ft 421 kts 60°
2026-05-05 06:54 -37.23901 145.23609 22526 ft 425 kts 61°
2026-05-05 06:55 -37.22427 145.26781 23007 ft 428 kts 61°
2026-05-05 06:55 -37.20920 145.30018 23515 ft 431 kts 61°
2026-05-05 06:55 -37.19405 145.33271 23939 ft 434 kts 61°
2026-05-05 06:55 -37.17874 145.36556 24325 ft 437 kts 61°
2026-05-05 06:56 -37.16328 145.39846 24730 ft 440 kts 59°
2026-05-05 06:56 -37.14647 145.43054 25119 ft 443 kts 56°
2026-05-05 06:56 -37.12849 145.46210 25495 ft 446 kts 55°
2026-05-05 06:56 -37.11001 145.49350 25878 ft 448 kts 54°
2026-05-05 06:57 -37.09141 145.52490 26258 ft 451 kts 54°
2026-05-05 06:57 -37.07299 145.55617 26640 ft 453 kts 54°
2026-05-05 06:57 -37.05432 145.58810 26999 ft 455 kts 55°
2026-05-05 06:57 -37.03570 145.62016 27344 ft 458 kts 55°
2026-05-05 06:58 -37.01698 145.65254 27698 ft 460 kts 55°
2026-05-05 06:58 -36.99825 145.68498 28050 ft 462 kts 55°
2026-05-05 06:58 -36.97938 145.71769 28376 ft 464 kts 55°
2026-05-05 06:58 -36.96045 145.75048 28701 ft 466 kts 55°
2026-05-05 06:59 -36.94165 145.78301 29034 ft 468 kts 55°
2026-05-05 06:59 -36.92257 145.81598 29369 ft 470 kts 55°
2026-05-05 06:59 -36.90334 145.84917 29672 ft 472 kts 55°
2026-05-05 06:59 -36.88402 145.88247 29999 ft 473 kts 55°
2026-05-05 07:00 -36.86476 145.91564 30414 ft 472 kts 55°
2026-05-05 07:00 -36.84550 145.94876 30815 ft 470 kts 54°
2026-05-05 07:00 -36.82636 145.98165 31141 ft 469 kts 54°
2026-05-05 07:00 -36.80715 146.01463 31437 ft 470 kts 54°
2026-05-05 07:01 -36.78790 146.04764 31754 ft 470 kts 54°
2026-05-05 07:01 -36.76874 146.08048 32103 ft 469 kts 54°
2026-05-05 07:01 -36.74955 146.11334 32437 ft 468 kts 54°
2026-05-05 07:01 -36.73062 146.14572 32740 ft 468 kts 54°
2026-05-05 07:02 -36.71148 146.17842 33031 ft 468 kts 53°
2026-05-05 07:02 -36.69227 146.21121 33335 ft 468 kts 53°
2026-05-05 07:02 -36.67312 146.24387 33624 ft 468 kts 53°
2026-05-05 07:02 -36.65389 146.27662 33923 ft 468 kts 53°
2026-05-05 07:03 -36.63468 146.30934 34209 ft 467 kts 53°
2026-05-05 07:03 -36.61552 146.34190 34456 ft 467 kts 52°
2026-05-05 07:03 -36.59632 146.37453 34695 ft 467 kts 52°
2026-05-05 07:03 -36.57715 146.40706 34899 ft 467 kts 52°
2026-05-05 07:04 -36.55814 146.43930 35098 ft 468 kts 52°
2026-05-05 07:04 -36.53889 146.47190 35201 ft 470 kts 52°
2026-05-05 07:04 -36.51946 146.50477 35191 ft 471 kts 52°
2026-05-05 07:05 -36.48083 146.57007 35196 ft 467 kts 52°
2026-05-05 07:05 -36.44237 146.63496 35193 ft 465 kts 51°
2026-05-05 07:06 -36.40435 146.69897 35202 ft 463 kts 51°
2026-05-05 07:06 -36.36610 146.76323 35196 ft 463 kts 51°
2026-05-05 07:07 -36.32783 146.82742 35196 ft 463 kts 51°
2026-05-05 07:07 -36.28947 146.89164 35203 ft 464 kts 51°
2026-05-05 07:08 -36.25094 146.95604 35204 ft 466 kts 51°
2026-05-05 07:08 -36.21248 147.02020 35200 ft 468 kts 51°
2026-05-05 07:09 -36.17357 147.08499 35201 ft 470 kts 50°
2026-05-05 07:09 -36.13444 147.14999 35204 ft 472 kts 50°
2026-05-05 07:10 -36.09509 147.21526 35200 ft 474 kts 50°
2026-05-05 07:10 -36.05592 147.28015 35201 ft 475 kts 50°
2026-05-05 07:11 -36.01638 147.34553 35203 ft 475 kts 50°
2026-05-05 07:11 -35.97680 147.41084 35201 ft 475 kts 50°
2026-05-05 07:12 -35.93720 147.47607 35197 ft 475 kts 50°
2026-05-05 07:12 -35.89763 147.54115 35197 ft 474 kts 50°
2026-05-05 07:13 -35.85837 147.60560 35207 ft 473 kts 49°
2026-05-05 07:13 -35.81878 147.67042 35199 ft 472 kts 49°
2026-05-05 07:14 -35.77928 147.73492 35200 ft 471 kts 49°
2026-05-05 07:14 -35.74003 147.79890 35196 ft 471 kts 49°
2026-05-05 07:15 -35.70059 147.86312 35200 ft 470 kts 49°
2026-05-05 07:15 -35.66117 147.92719 35200 ft 470 kts 49°
2026-05-05 07:16 -35.62174 147.99114 35204 ft 469 kts 49°
2026-05-05 07:16 -35.58231 148.05500 35204 ft 469 kts 49°
2026-05-05 07:17 -35.54304 148.11848 35200 ft 469 kts 49°
2026-05-05 07:17 -35.50356 148.18218 35202 ft 469 kts 49°
2026-05-05 07:18 -35.46407 148.24579 35189 ft 469 kts 49°
2026-05-05 07:18 -35.42457 148.30929 35209 ft 468 kts 49°
2026-05-05 07:19 -35.38490 148.37280 35198 ft 469 kts 49°
2026-05-05 07:19 -35.34549 148.43575 35202 ft 469 kts 48°
2026-05-05 07:20 -35.30581 148.49905 35195 ft 469 kts 48°
2026-05-05 07:20 -35.26612 148.56229 35190 ft 468 kts 48°
2026-05-05 07:21 -35.22637 148.62551 35189 ft 468 kts 48°
2026-05-05 07:21 -35.18693 148.68812 35184 ft 468 kts 48°
2026-05-05 07:22 -35.14739 148.75080 35172 ft 460 kts 48°
2026-05-05 07:22 -35.10929 148.81114 35182 ft 451 kts 48°
2026-05-05 07:23 -35.07077 148.87190 34891 ft 455 kts 48°
2026-05-05 07:23 -35.05151 148.90225 34568 ft 450 kts 48°
2026-05-05 07:23 -35.03265 148.93198 34186 ft 446 kts 48°
2026-05-05 07:23 -35.01351 148.96213 33741 ft 443 kts 48°
2026-05-05 07:24 -34.99494 148.99136 33331 ft 439 kts 48°
2026-05-05 07:24 -34.97630 149.02067 32928 ft 436 kts 48°
2026-05-05 07:24 -34.95780 149.04972 32539 ft 432 kts 48°
2026-05-05 07:24 -34.93948 149.07848 32153 ft 428 kts 48°
2026-05-05 07:25 -34.92122 149.10709 31781 ft 425 kts 48°
2026-05-05 07:25 -34.90315 149.13541 31404 ft 422 kts 48°
2026-05-05 07:25 -34.88518 149.16353 31033 ft 419 kts 48°
2026-05-05 07:25 -34.86753 149.19113 30666 ft 417 kts 48°
2026-05-05 07:26 -34.84980 149.21884 30294 ft 414 kts 48°
2026-05-05 07:26 -34.83211 149.24647 29867 ft 412 kts 48°
2026-05-05 07:26 -34.81457 149.27383 29462 ft 409 kts 48°
2026-05-05 07:26 -34.79738 149.30065 29085 ft 405 kts 48°
2026-05-05 07:27 -34.78019 149.32746 28704 ft 401 kts 48°
2026-05-05 07:27 -34.76301 149.35419 28320 ft 398 kts 48°
2026-05-05 07:27 -34.74601 149.38068 27948 ft 395 kts 49°
2026-05-05 07:27 -34.73104 149.40866 27638 ft 394 kts 58°
2026-05-05 07:28 -34.71836 149.43749 27299 ft 391 kts 59°
2026-05-05 07:28 -34.70587 149.46667 26932 ft 388 kts 60°
2026-05-05 07:28 -34.69347 149.49572 26578 ft 386 kts 60°
2026-05-05 07:28 -34.68108 149.52461 26213 ft 384 kts 59°
2026-05-05 07:29 -34.66869 149.55326 25850 ft 382 kts 59°
2026-05-05 07:29 -34.65635 149.58166 25499 ft 380 kts 59°
2026-05-05 07:29 -34.64400 149.60994 25144 ft 378 kts 59°
2026-05-05 07:29 -34.63166 149.63815 24789 ft 377 kts 59°
2026-05-05 07:30 -34.61955 149.66579 24440 ft 375 kts 60°
2026-05-05 07:30 -34.59506 149.72160 23707 ft 374 kts 60°
2026-05-05 07:30 -34.58287 149.74936 23286 ft 373 kts 60°
2026-05-05 07:31 -34.57068 149.77710 22911 ft 370 kts 60°
2026-05-05 07:31 -34.55863 149.80450 22545 ft 368 kts 60°
2026-05-05 07:31 -34.54660 149.83183 22193 ft 366 kts 60°
2026-05-05 07:31 -34.53467 149.85891 21828 ft 363 kts 60°
2026-05-05 07:32 -34.52278 149.88589 21497 ft 361 kts 60°
2026-05-05 07:32 -34.51113 149.91229 21153 ft 359 kts 60°
2026-05-05 07:32 -34.49938 149.93889 20818 ft 357 kts 60°
2026-05-05 07:32 -34.48771 149.96530 20488 ft 355 kts 60°
2026-05-05 07:33 -34.47606 149.99162 20156 ft 353 kts 60°
2026-05-05 07:33 -34.46441 150.01794 19706 ft 355 kts 60°
2026-05-05 07:33 -34.45278 150.04420 19339 ft 354 kts 60°
2026-05-05 07:33 -34.44112 150.07051 19004 ft 353 kts 60°
2026-05-05 07:34 -34.42953 150.09665 18653 ft 353 kts 60°
2026-05-05 07:34 -34.41790 150.12286 18272 ft 353 kts 60°
2026-05-05 07:34 -34.40646 150.14863 17904 ft 351 kts 60°
2026-05-05 07:34 -34.39493 150.17456 17547 ft 350 kts 60°
2026-05-05 07:35 -34.38343 150.20043 17200 ft 348 kts 60°
2026-05-05 07:35 -34.37197 150.22617 16850 ft 346 kts 60°
2026-05-05 07:35 -34.36061 150.25169 16512 ft 344 kts 60°
2026-05-05 07:35 -34.34928 150.27712 16163 ft 342 kts 61°
2026-05-05 07:36 -34.33799 150.30243 15840 ft 341 kts 61°
2026-05-05 07:36 -34.32675 150.32761 15504 ft 339 kts 61°
2026-05-05 07:36 -34.31572 150.35234 15168 ft 338 kts 61°
2026-05-05 07:36 -34.30459 150.37725 14835 ft 336 kts 61°
2026-05-05 07:37 -34.29349 150.40206 14506 ft 336 kts 61°
2026-05-05 07:37 -34.28235 150.42693 14168 ft 335 kts 61°
2026-05-05 07:37 -34.27128 150.45165 13789 ft 335 kts 61°
2026-05-05 07:37 -34.26014 150.47654 13460 ft 341 kts 61°
2026-05-05 07:38 -34.24838 150.50282 13126 ft 373 kts 61°
2026-05-05 07:38 -34.23555 150.53147 12696 ft 393 kts 61°
2026-05-05 07:38 -34.22257 150.56042 12294 ft 392 kts 61°
2026-05-05 07:38 -34.20964 150.58926 11893 ft 389 kts 61°
2026-05-05 07:39 -34.19696 150.61751 11510 ft 386 kts 61°
2026-05-05 07:39 -34.18424 150.64579 11129 ft 383 kts 60°
2026-05-05 07:39 -34.17157 150.67397 10752 ft 381 kts 60°
2026-05-05 07:39 -34.15894 150.70203 10365 ft 379 kts 60°
2026-05-05 07:40 -34.14649 150.72968 10170 ft 372 kts 60°
2026-05-05 07:40 -34.13414 150.75711 9965 ft 372 kts 60°
2026-05-05 07:40 -34.12176 150.78458 9554 ft 371 kts 60°
2026-05-05 07:40 -34.10970 150.81130 9182 ft 364 kts 60°
2026-05-05 07:41 -34.09773 150.83783 8852 ft 356 kts 60°
2026-05-05 07:41 -34.08644 150.86290 8585 ft 347 kts 60°
2026-05-05 07:41 -34.07505 150.88821 8326 ft 339 kts 60°
2026-05-05 07:41 -34.06395 150.91285 8064 ft 331 kts 61°
2026-05-05 07:42 -34.05313 150.93687 7811 ft 319 kts 60°
2026-05-05 07:42 -34.04275 150.95991 7573 ft 307 kts 60°
2026-05-05 07:42 -34.03232 150.98183 7326 ft 296 kts 52°
2026-05-05 07:42 -34.01749 150.99742 7117 ft 281 kts 25°
2026-05-05 07:43 -33.99932 151.00308 6970 ft 266 kts 359°
2026-05-05 07:43 -33.98114 151.00220 6857 ft 258 kts 354°
2026-05-05 07:43 -33.96325 151.00045 6808 ft 260 kts 353°
2026-05-05 07:43 -33.94502 150.99851 6764 ft 265 kts 353°
2026-05-05 07:44 -33.92665 150.99650 6742 ft 264 kts 353°
2026-05-05 07:44 -33.90846 150.99450 6498 ft 260 kts 353°
2026-05-05 07:44 -33.89039 150.99246 5969 ft 262 kts 353°
2026-05-05 07:44 -33.87212 150.99029 5438 ft 266 kts 353°
2026-05-05 07:45 -33.85395 150.98799 5012 ft 265 kts 353°
2026-05-05 07:45 -33.83569 150.98554 4630 ft 262 kts 353°
2026-05-05 07:45 -33.81788 150.98311 4409 ft 252 kts 355°
2026-05-05 07:45 -33.80129 150.98642 4276 ft 237 kts 31°
2026-05-05 07:46 -33.79024 151.00028 4208 ft 233 kts 62°
2026-05-05 07:46 -33.78206 151.01764 4005 ft 242 kts 62°
2026-05-05 07:46 -33.77390 151.03511 3793 ft 234 kts 62°
2026-05-05 07:46 -33.76600 151.05128 3584 ft 221 kts 63°
2026-05-05 07:47 -33.76202 151.06787 3448 ft 205 kts 94°
2026-05-05 07:47 -33.76525 151.08379 3334 ft 201 kts 123°
2026-05-05 07:47 -33.77475 151.09578 3168 ft 197 kts 147°
2026-05-05 07:47 -33.78370 151.10788 2994 ft 203 kts 111°
2026-05-05 07:48 -33.78588 151.12454 2868 ft 199 kts 99°
2026-05-05 07:48 -33.78728 151.14033 2749 ft 183 kts 101°
2026-05-05 07:48 -33.79248 151.15297 2654 ft 161 kts 152°
2026-05-05 07:48 -33.80334 151.15479 2537 ft 169 kts 189°
2026-05-05 07:49 -33.81506 151.15318 2325 ft 169 kts 182°
2026-05-05 07:49 -33.82675 151.15321 2090 ft 167 kts 176°
2026-05-05 07:49 -33.83805 151.15471 1864 ft 159 kts 172°
2026-05-05 07:49 -33.84869 151.15671 1664 ft 150 kts 176°
2026-05-05 07:50 -33.85875 151.15731 1496 ft 139 kts 180°
2026-05-05 07:50 -33.86839 151.15757 1262 ft 137 kts 178°
2026-05-05 07:50 -33.87771 151.15855 1068 ft 133 kts 173°
2026-05-05 07:50 -33.88687 151.16075 935 ft 134 kts 167°
2026-05-05 07:51 -33.89602 151.16316 778 ft 138 kts 169°
2026-05-05 07:51 -33.90543 151.16525 552 ft 137 kts 169°
2026-05-05 07:51 -33.91459 151.16787 362 ft 135 kts 168°
2026-05-05 07:51 -33.92368 151.17015 202 ft 132 kts 168°
2026-05-05 07:52 -33.93250 151.17241 37 ft 124 kts 167°
2026-05-05 07:52 -33.93989 151.17431 27 ft 89 kts 166°
2026-05-05 07:52 -33.94443 151.17552 29 ft 49 kts 167°
2026-05-05 07:52 -33.94715 151.17606 28 ft 19 kts 201°
2026-05-05 07:53 -33.94744 151.17484 29 ft 11 kts 287°
2026-05-05 07:53 -33.94707 151.17425 29 ft 9 kts 324°
2026-05-05 07:53 -33.94652 151.17400 29 ft 9 kts 348°
2026-05-05 07:53 -33.94594 151.17386 30 ft 8 kts 350°
2026-05-05 07:54 -33.94538 151.17373 29 ft 8 kts 347°
2026-05-05 07:54 -33.94484 151.17358 30 ft 8 kts 347°
2026-05-05 07:54 -33.94432 151.17343 29 ft 8 kts 348°
2026-05-05 07:54 -33.94381 151.17332 29 ft 7 kts 350°
2026-05-05 07:55 -33.94331 151.17318 29 ft 7 kts 345°
2026-05-05 07:55 -33.94284 151.17306 29 ft 7 kts 349°
2026-05-05 07:55 -33.94236 151.17294 28 ft 7 kts 347°
2026-05-05 07:55 -33.94185 151.17281 27 ft 8 kts 348°
2026-05-05 07:56 -33.94133 151.17267 27 ft 7 kts 347°
2026-05-05 07:56 -33.94083 151.17254 28 ft 7 kts 347°
2026-05-05 07:56 -33.94035 151.17241 28 ft 7 kts 349°
2026-05-05 07:56 -33.93988 151.17235 28 ft 6 kts
2026-05-05 07:57 -33.93960 151.17275 28 ft 7 kts 63°
2026-05-05 07:57 -33.93945 151.17336 26 ft 10 kts 75°
2026-05-05 07:57 -33.93919 151.17443 26 ft 16 kts 73°
2026-05-05 07:57 -33.93890 151.17563 28 ft 7 kts 74°
2026-05-05 07:58 -33.93877 151.17621 28 ft 7 kts 74°
2026-05-05 07:58 -33.93864 151.17677 28 ft 7 kts 75°
2026-05-05 07:58 -33.93848 151.17729 29 ft 7 kts 57°
2026-05-05 07:58 -33.93811 151.17761 29 ft 7 kts 22°
2026-05-05 07:59 -33.93767 151.17776 29 ft 6 kts 13°
2026-05-05 07:59 -33.93724 151.17788 29 ft 6 kts 13°
2026-05-05 07:59 -33.93682 151.17801 29 ft 6 kts 14°
2026-05-05 07:59 -33.93639 151.17813 29 ft 6 kts 11°
2026-05-05 08:00 -33.93598 151.17823 29 ft 6 kts 11°
2026-05-05 08:00 -33.93555 151.17833 29 ft 6 kts
2026-05-05 08:00 -33.93521 151.17841 29 ft 4 kts 24°
2026-05-05 08:00 -33.93515 151.17865 29 ft 2 kts 98°
2026-05-05 08:01 -33.93517 151.17879 29 ft 2 kts 100°
2026-05-05 08:01 -33.93520 151.17895 29 ft 2 kts 100°
2026-05-05 08:01 -33.93521 151.17903 29 ft 0 kts 99°
2026-05-05 08:01 -33.93521 151.17906 29 ft 0 kts 99°
2026-05-05 08:02 -33.93522 151.17910 29 ft 1 kts 99°
2026-05-05 08:02 -33.93523 151.17917 29 ft 1 kts 100°
2026-05-05 08:02 -33.93523 151.17919 29 ft 0 kts 100°
2026-05-05 08:02 -33.93523 151.17920 29 ft 0 kts 99°
2026-05-05 08:03 -33.93523 151.17921 29 ft 0 kts 99°